User: anonymous   Login
Location: Unspecified
(0.0000°N, 0.0000°E)
Time: 22:42:51
(UTC+00:00)
Language:

Tiangong 2 - Orbit

View from above orbital plane
View from above orbital plane
View from above satellite
View from above satellite

Ground track
Ground track

The orbit data is extracted from the following two-line orbital elements,

1 41765U 16057A   19113.56291946  .00004011  00000-0  50266-4 0  9998
2 41765  42.7831 292.6995 0008657 253.2513 185.1793 15.61310890148505
Epoch (UTC): 23 April 2019 13:30:36
Eccentricity: 0.0008657
inclination: 42.7831°
perigee height: 378 km
apogee height: 390 km
right ascension of ascending node: 292.6995°
argument of perigee: 253.2513°
revolutions per day: 15.61310890
mean anomaly at epoch: 185.1793°
orbit number at epoch: 14850

The dashed part of the orbit path shows where the satellite is in the earth's shadow,  

DLR